Location: Unspecified
(0.0000°N, 0.0000°E)
Time: 09:39:00
(UTC+00:00)

Vanguard 1 Rocket - Pass Details

Date: 11 December 2017
Orbit: 655 x 4223 km, 34.3° (Epoch: 20 April)

Event Time Altitude Azimuth Distance (km) Brightness Sun altitude
Rises 17:46:05 0° 301° (WNW) 4,621 11.6 1.7°
Reaches altitude 10° 17:51:00 10° 325° (NW) 4,273 11.0 0.6°
Maximum altitude 17:57:03 15° 356° (N) 4,624 10.8 -0.8°
Drops below altitude 10° 18:05:02 10° 25° (NNE) 5,875 11.1 -2.7°
Sets 18:14:56 0° 45° (NE) 7,728 11.5 -4.9°
